User: anonymous   Login
Location: Bocchiglicro
(39.4167°N, 16.7500°E)
Time: 15:24:26
(UTC+00:00)
Language:

Cosmos-2242 - Orbit

View from above orbital plane
View from above orbital plane
View from above satellite
View from above satellite

Ground track
Ground track

The orbit data is extracted from the following two-line orbital elements,

1 22626U 93024A   20224.89902636 +.00000144 +00000-0 +12936-4 0  9993
2 22626 082.5210 035.7080 0017433 256.0272 103.9007 14.88012410477101
Epoch (UTC): 11 August 2020 21:34:35
Eccentricity: 0.0017433
inclination: 82.5210°
perigee height: 592 km
apogee height: 616 km
right ascension of ascending node: 35.7080°
argument of perigee: 256.0272°
revolutions per day: 14.88012410
mean anomaly at epoch: 103.9007°
orbit number at epoch: 47710

The dashed part of the orbit path shows where the satellite is in the earth's shadow,  

DLR